Location: Banksville Park
(38.5557°N, 75.1182°W)
Time: 06:46:31
(UTC+00:00)

Cosmos 1484 Rocket - Pass Details

Date: 19 September 2020
Orbit: 507 x 558 km, 97.4° (Epoch: 18 October)

Event Time Altitude Azimuth Distance (km) Brightness Sun altitude
Rises 10:13:37 0° 1° (N) 2,732 6.5 -7.1°
Reaches altitude 10° 10:15:53 10° 352° (N) 1,840 5.5 -6.7°
Maximum altitude 10:19:28 33° 288° (WNW) 947 3.6 -6.0°
Drops below altitude 10° 10:23:04 10° 224° (SW) 1,838 5.0 -5.3°
Sets 10:25:20 0° 214° (SW) 2,730 6.0 -4.9°
